User: anonymous
Location: Unspecified
(0.0000°N, 0.0000°E)
Time: 23:05:31
(UTC+02:00)
Language:

Cosmos 1125 Rocket - Orbit

View from above orbital plane
View from above orbital plane
View from above satellite
View from above satellite

Ground track
Ground track

The orbit data is extracted from the following two-line orbital elements,

1 11511U 79078B   14243.48224514  .00000106  00000-0  45003-4 0  8705
2 11511 074.0385 031.0174 0015316 167.4274 247.6232 14.36440949832059
Epoch (UTC): 31 August 2014 11:34:25
Eccentricity: 0.0015316
inclination: 74.0385°
perigee height: 759 km
apogee height: 781 km
right ascension of ascending node: 31.0174°
argument of perigee: 167.4274°
revolutions per day: 14.36440949
mean anomaly at epoch: 247.6232°
orbit number at epoch: 83205

The dashed part of the orbit path shows where the satellite is in the earth's shadow,  

DLR